Year,Month,Day,Hour,Minute,Value (Times are PST for windspeed in km/hr)
2010,04,03,00,00,20.20
2010,04,03,00,01,7.50
2010,04,03,00,02,10.50
2010,04,03,00,03,10.80
2010,04,03,00,04,16.30
2010,04,03,00,05,11.00
2010,04,03,00,06,18.30
2010,04,03,00,07,8.00
2010,04,03,00,08,7.00
2010,04,03,00,09,11.10
2010,04,03,00,10,13.30
2010,04,03,00,11,10.40
2010,04,03,00,12,5.90
2010,04,03,00,13,15.70
2010,04,03,00,14,6.70
2010,04,03,00,15,4.20
2010,04,03,00,16,9.60
2010,04,03,00,17,10.20
2010,04,03,00,18,11.50
2010,04,03,00,19,14.20
2010,04,03,00,20,8.40
2010,04,03,00,21,14.50
2010,04,03,00,22,21.90
2010,04,03,00,23,12.50
2010,04,03,00,24,15.90
2010,04,03,00,25,7.30
2010,04,03,00,26,13.00
2010,04,03,00,27,19.60
2010,04,03,00,28,14.10
2010,04,03,00,29,11.80
2010,04,03,00,30,11.30
2010,04,03,00,31,10.70
2010,04,03,00,32,4.50
2010,04,03,00,33,11.40
2010,04,03,00,34,11.00
2010,04,03,00,35,13.90
2010,04,03,00,36,11.70
2010,04,03,00,37,10.40
2010,04,03,00,38,7.30
2010,04,03,00,39,14.60
2010,04,03,00,40,11.10
2010,04,03,00,41,13.50
2010,04,03,00,42,22.40
2010,04,03,00,43,15.90
2010,04,03,00,44,14.60
2010,04,03,00,45,17.10
2010,04,03,00,46,16.90
2010,04,03,00,47,14.00
2010,04,03,00,48,16.40
2010,04,03,00,49,15.20
2010,04,03,00,50,9.70
2010,04,03,00,51,12.10
2010,04,03,00,52,8.20
2010,04,03,00,53,14.00
2010,04,03,00,54,8.00
2010,04,03,00,55,6.80
2010,04,03,00,56,9.70
2010,04,03,00,57,8.60
2010,04,03,00,58,7.40
2010,04,03,00,59,12.40
2010,04,03,01,00,5.80
2010,04,03,01,01,12.90
2010,04,03,01,02,10.70
2010,04,03,01,03,8.70
2010,04,03,01,04,7.50
2010,04,03,01,05,4.20
2010,04,03,01,06,8.90
2010,04,03,01,07,11.60
2010,04,03,01,08,8.50
2010,04,03,01,09,10.80
2010,04,03,01,10,10.30
2010,04,03,01,11,9.70
2010,04,03,01,12,22.80
2010,04,03,01,13,15.60
2010,04,03,01,14,19.30
2010,04,03,01,15,13.50
2010,04,03,01,16,10.00
2010,04,03,01,17,9.10
2010,04,03,01,18,15.70
2010,04,03,01,19,5.70
2010,04,03,01,20,4.00
2010,04,03,01,21,5.20
2010,04,03,01,22,4.70
2010,04,03,01,23,9.30
2010,04,03,01,24,6.80
2010,04,03,01,25,8.60
2010,04,03,01,26,11.60
2010,04,03,01,27,8.00
2010,04,03,01,28,9.20
2010,04,03,01,29,6.60
2010,04,03,01,30,1.20
2010,04,03,01,31,6.30
2010,04,03,01,32,11.80
2010,04,03,01,33,4.60
2010,04,03,01,34,6.70
2010,04,03,01,35,10.40
2010,04,03,01,36,6.50
2010,04,03,01,37,7.10
2010,04,03,01,38,7.80
2010,04,03,01,39,6.80
2010,04,03,01,40,9.10
2010,04,03,01,41,7.10
2010,04,03,01,42,8.00
2010,04,03,01,43,7.70
2010,04,03,01,44,8.40
2010,04,03,01,45,10.00
2010,04,03,01,46,4.80
2010,04,03,01,47,5.60
2010,04,03,01,48,6.20
2010,04,03,01,49,6.00
2010,04,03,01,50,2.10
2010,04,03,01,51,7.40
2010,04,03,01,52,5.30
2010,04,03,01,53,10.40
2010,04,03,01,54,6.60
2010,04,03,01,55,5.20
2010,04,03,01,56,2.20
2010,04,03,01,57,4.00
2010,04,03,01,58,4.30
2010,04,03,01,59,5.20
2010,04,03,02,00,3.70
2010,04,03,02,01,6.90
2010,04,03,02,02,4.80
2010,04,03,02,03,11.60
2010,04,03,02,04,8.30
2010,04,03,02,05,4.50
2010,04,03,02,06,11.40
2010,04,03,02,07,6.90
2010,04,03,02,08,6.40
2010,04,03,02,09,3.70
2010,04,03,02,10,15.00
2010,04,03,02,11,11.00
2010,04,03,02,12,17.50
2010,04,03,02,13,13.50
2010,04,03,02,14,9.50
2010,04,03,02,15,8.90
2010,04,03,02,16,11.30
2010,04,03,02,17,9.30
2010,04,03,02,18,4.70
2010,04,03,02,19,11.00
2010,04,03,02,20,6.40
2010,04,03,02,21,7.70
2010,04,03,02,22,7.00
2010,04,03,02,23,8.50
2010,04,03,02,24,7.50
2010,04,03,02,25,4.10
2010,04,03,02,26,5.20
2010,04,03,02,27,3.70
2010,04,03,02,28,5.20
2010,04,03,02,29,8.10
2010,04,03,02,30,6.90
2010,04,03,02,31,9.10
2010,04,03,02,32,15.60
2010,04,03,02,33,4.70
2010,04,03,02,34,10.30
2010,04,03,02,35,8.30
2010,04,03,02,36,5.30
2010,04,03,02,37,7.20
2010,04,03,02,38,16.40
2010,04,03,02,39,15.30
2010,04,03,02,40,10.60
2010,04,03,02,41,14.50
2010,04,03,02,42,9.70
2010,04,03,02,43,8.70
2010,04,03,02,44,9.30
2010,04,03,02,45,7.50
2010,04,03,02,46,10.80
2010,04,03,02,47,15.50
2010,04,03,02,48,11.60
2010,04,03,02,49,10.90
2010,04,03,02,50,5.00
2010,04,03,02,51,10.40
2010,04,03,02,52,10.20
2010,04,03,02,53,11.40
2010,04,03,02,54,9.80
2010,04,03,02,55,14.00
2010,04,03,02,56,10.60
2010,04,03,02,57,10.40
2010,04,03,02,58,12.70
2010,04,03,02,59,8.60
2010,04,03,03,00,16.00
2010,04,03,03,01,11.90
2010,04,03,03,02,20.10
2010,04,03,03,03,12.40
2010,04,03,03,04,10.80
2010,04,03,03,05,10.50
2010,04,03,03,06,24.10
2010,04,03,03,07,13.10
2010,04,03,03,08,15.10
2010,04,03,03,09,10.70
2010,04,03,03,10,20.70
2010,04,03,03,11,12.30
2010,04,03,03,12,10.60
2010,04,03,03,13,5.20
2010,04,03,03,14,8.00
2010,04,03,03,15,15.00
2010,04,03,03,16,7.00
2010,04,03,03,17,8.70
2010,04,03,03,18,8.70
2010,04,03,03,19,10.20
2010,04,03,03,20,7.10
2010,04,03,03,21,4.20
2010,04,03,03,22,6.80
2010,04,03,03,23,7.10
2010,04,03,03,24,13.00
2010,04,03,03,25,7.80
2010,04,03,03,26,6.10
2010,04,03,03,27,14.20
2010,04,03,03,28,9.40
2010,04,03,03,29,6.10
2010,04,03,03,30,4.00
2010,04,03,03,31,11.90
2010,04,03,03,32,11.70
2010,04,03,03,33,16.90
2010,04,03,03,34,9.20
2010,04,03,03,35,8.60
2010,04,03,03,36,14.40
2010,04,03,03,37,10.20
2010,04,03,03,38,15.20
2010,04,03,03,39,15.40
2010,04,03,03,40,10.30
2010,04,03,03,41,14.10
2010,04,03,03,42,12.10
2010,04,03,03,43,12.50
2010,04,03,03,44,9.80
2010,04,03,03,45,10.10
2010,04,03,03,46,7.40
2010,04,03,03,47,10.10
2010,04,03,03,48,17.20
2010,04,03,03,49,18.20
2010,04,03,03,50,15.50
2010,04,03,03,51,9.90
2010,04,03,03,52,6.90
2010,04,03,03,53,7.70
2010,04,03,03,54,14.90
2010,04,03,03,55,13.50
2010,04,03,03,56,13.30
2010,04,03,03,57,11.80
2010,04,03,03,58,9.20
2010,04,03,03,59,11.70
2010,04,03,04,00,13.00
2010,04,03,04,01,8.70
2010,04,03,04,02,12.70
2010,04,03,04,03,9.60
2010,04,03,04,04,12.50
2010,04,03,04,05,8.60
2010,04,03,04,06,7.80
2010,04,03,04,07,10.20
2010,04,03,04,08,8.50
2010,04,03,04,09,6.90
2010,04,03,04,10,11.00
2010,04,03,04,11,12.70
2010,04,03,04,12,11.30
2010,04,03,04,13,9.00
2010,04,03,04,14,11.40
2010,04,03,04,15,12.70
2010,04,03,04,16,13.30
2010,04,03,04,17,12.00
2010,04,03,04,18,13.60
2010,04,03,04,19,21.30
2010,04,03,04,20,19.20
2010,04,03,04,21,18.20
2010,04,03,04,22,16.90
2010,04,03,04,23,20.10
2010,04,03,04,24,14.80
2010,04,03,04,25,13.60
2010,04,03,04,26,13.70
2010,04,03,04,27,20.80
2010,04,03,04,28,13.10
2010,04,03,04,29,15.90
2010,04,03,04,30,18.00
2010,04,03,04,31,12.00
2010,04,03,04,32,9.70
2010,04,03,04,33,12.70
2010,04,03,04,34,11.10
2010,04,03,04,35,10.70
2010,04,03,04,36,13.00
2010,04,03,04,37,7.40
2010,04,03,04,38,12.00
2010,04,03,04,39,6.40
2010,04,03,04,40,6.60
2010,04,03,04,41,15.10
2010,04,03,04,42,6.20
2010,04,03,04,43,5.20
2010,04,03,04,44,5.80
2010,04,03,04,45,3.30
2010,04,03,04,46,7.50
2010,04,03,04,47,4.20
2010,04,03,04,48,6.10
2010,04,03,04,49,5.40
2010,04,03,04,50,8.10
2010,04,03,04,51,8.10
2010,04,03,04,52,8.10
2010,04,03,04,53,8.10
2010,04,03,04,54,8.10
2010,04,03,04,55,8.10
2010,04,03,04,56,8.10
2010,04,03,04,57,8.10
2010,04,03,04,58,8.10
2010,04,03,04,59,8.10
2010,04,03,15,28,6.90
2010,04,03,15,29,6.90
2010,04,03,15,30,6.10
2010,04,03,15,31,6.90
2010,04,03,15,32,9.50
2010,04,03,15,33,9.60
2010,04,03,15,34,9.70
2010,04,03,15,35,10.80
2010,04,03,15,36,10.30
2010,04,03,15,37,15.30
2010,04,03,15,38,11.30
2010,04,03,15,39,10.10
2010,04,03,15,40,8.90
2010,04,03,15,41,8.60
2010,04,03,15,42,11.30
2010,04,03,15,43,14.90
2010,04,03,15,44,9.60
2010,04,03,15,45,11.40
2010,04,03,15,46,12.60
2010,04,03,15,47,13.00
2010,04,03,15,48,11.30
2010,04,03,15,49,9.40
2010,04,03,15,50,9.30
2010,04,03,15,51,12.90
2010,04,03,15,52,8.90
2010,04,03,15,53,13.60
2010,04,03,15,54,12.20
2010,04,03,15,55,8.60
2010,04,03,15,56,14.30
2010,04,03,15,57,8.80
2010,04,03,15,58,9.30
2010,04,03,15,59,12.20
2010,04,03,16,00,14.40
2010,04,03,16,01,11.90
2010,04,03,16,02,10.60
2010,04,03,16,03,10.90
2010,04,03,16,04,10.30
2010,04,03,16,05,11.00
2010,04,03,16,06,8.10
2010,04,03,16,07,10.80
2010,04,03,16,08,9.90
2010,04,03,16,09,12.30
2010,04,03,16,10,10.90
2010,04,03,16,11,11.30
2010,04,03,16,12,12.00
2010,04,03,16,13,12.10
2010,04,03,16,14,13.90
2010,04,03,16,15,12.40
2010,04,03,16,16,11.80
2010,04,03,16,17,11.00
2010,04,03,16,18,6.60
2010,04,03,16,19,5.90
2010,04,03,16,20,4.50
2010,04,03,16,21,5.80
2010,04,03,16,22,8.20
2010,04,03,16,23,6.20
2010,04,03,16,24,6.80
2010,04,03,16,25,12.10
2010,04,03,16,26,6.30
2010,04,03,16,27,6.40
2010,04,03,16,28,10.60
2010,04,03,16,29,8.60
2010,04,03,16,30,7.60
2010,04,03,16,31,10.80
2010,04,03,16,32,9.10
2010,04,03,16,33,4.80
2010,04,03,16,34,4.10
2010,04,03,16,35,3.00
2010,04,03,16,36,6.30
2010,04,03,16,37,10.80
2010,04,03,16,38,7.20
2010,04,03,16,39,8.30
2010,04,03,16,40,13.60
2010,04,03,16,41,12.20
2010,04,03,16,42,10.80
2010,04,03,16,43,9.50
2010,04,03,16,44,9.50
2010,04,03,16,45,6.10
2010,04,03,16,46,9.10
2010,04,03,16,47,8.60
2010,04,03,16,48,9.30
2010,04,03,16,49,9.30
2010,04,03,16,50,7.80
2010,04,03,16,51,7.50
2010,04,03,16,52,4.00
2010,04,03,16,53,4.10
2010,04,03,16,54,4.20
2010,04,03,16,55,5.10
2010,04,03,16,56,7.90
2010,04,03,16,57,5.80
2010,04,03,16,58,8.60
2010,04,03,16,59,6.90
2010,04,03,17,00,3.00
2010,04,03,17,01,7.10
2010,04,03,17,02,8.60
2010,04,03,17,03,3.90
2010,04,03,17,04,1.40
2010,04,03,17,05,3.30
2010,04,03,17,06,6.50
2010,04,03,17,07,6.10
2010,04,03,17,08,4.60
2010,04,03,17,09,4.10
2010,04,03,17,10,4.50
2010,04,03,17,11,6.40
2010,04,03,17,12,4.00
2010,04,03,17,13,5.90
2010,04,03,17,14,4.00
2010,04,03,17,15,7.60
2010,04,03,17,16,6.80
2010,04,03,17,17,5.50
2010,04,03,17,18,6.00
2010,04,03,17,19,8.80
2010,04,03,17,20,9.10
2010,04,03,17,21,6.30
2010,04,03,17,22,6.70
2010,04,03,17,23,3.70
2010,04,03,17,24,3.00
2010,04,03,17,25,6.60
2010,04,03,17,26,7.20
2010,04,03,17,27,5.00
2010,04,03,17,28,6.50
2010,04,03,17,29,7.60
2010,04,03,17,30,6.20
2010,04,03,17,31,7.70
2010,04,03,17,32,7.50
2010,04,03,17,33,10.30
2010,04,03,17,34,9.10
2010,04,03,17,35,8.60
2010,04,03,17,36,5.90
2010,04,03,17,37,4.30
2010,04,03,17,38,4.10
2010,04,03,17,39,6.30
2010,04,03,17,40,4.80
2010,04,03,17,41,5.10
2010,04,03,17,42,10.30
2010,04,03,17,43,14.60
2010,04,03,17,44,7.50
2010,04,03,17,45,8.00
2010,04,03,17,46,6.50
2010,04,03,17,47,9.00
2010,04,03,17,48,3.30
2010,04,03,17,49,0.80
2010,04,03,17,50,1.90
2010,04,03,17,51,3.00
2010,04,03,17,52,6.10
2010,04,03,17,53,6.20
2010,04,03,17,54,3.80
2010,04,03,17,55,2.00
2010,04,03,17,56,4.00
2010,04,03,17,57,7.30
2010,04,03,17,58,4.20
2010,04,03,17,59,5.50
2010,04,03,18,00,3.10
2010,04,03,18,01,5.80
2010,04,03,18,02,4.80
2010,04,03,18,03,5.00
2010,04,03,18,04,8.30
2010,04,03,18,05,13.80
2010,04,03,18,06,8.40
2010,04,03,18,07,8.00
2010,04,03,18,08,7.60
2010,04,03,18,09,13.20
2010,04,03,18,10,10.80
2010,04,03,18,11,7.70
2010,04,03,18,12,6.40
2010,04,03,18,13,5.20
2010,04,03,18,14,11.10
2010,04,03,18,15,10.70
2010,04,03,18,16,9.40
2010,04,03,18,17,7.30
2010,04,03,18,18,5.70
2010,04,03,18,19,8.50
2010,04,03,18,20,7.20
2010,04,03,18,21,4.90
2010,04,03,18,22,7.60
2010,04,03,18,23,5.40
2010,04,03,18,24,3.10
2010,04,03,18,25,3.70
2010,04,03,18,26,2.70
2010,04,03,18,27,0.20
2010,04,03,18,28,0.20
2010,04,03,18,29,0.00
2010,04,03,18,30,1.20
2010,04,03,18,31,1.40
2010,04,03,18,32,0.20
2010,04,03,18,33,0.20
2010,04,03,18,34,0.30
2010,04,03,18,35,0.90
2010,04,03,18,36,1.70
2010,04,03,18,37,1.60
2010,04,03,18,38,4.20
2010,04,03,18,39,1.30
2010,04,03,18,40,1.10
2010,04,03,18,41,1.10
2010,04,03,18,42,0.80
2010,04,03,18,43,0.20
2010,04,03,18,44,1.00
2010,04,03,18,45,1.40
2010,04,03,18,46,0.10
2010,04,03,18,47,0.70
2010,04,03,18,48,1.40
2010,04,03,18,49,1.40
2010,04,03,18,50,0.90
2010,04,03,18,51,1.40
2010,04,03,18,52,1.40
2010,04,03,18,53,0.40
2010,04,03,18,54,0.80
2010,04,03,18,55,1.20
2010,04,03,18,56,0.70
2010,04,03,18,57,0.90
2010,04,03,18,58,0.00
2010,04,03,18,59,0.10
2010,04,03,19,00,0.20
2010,04,03,19,01,1.10
2010,04,03,19,02,1.50
2010,04,03,19,03,0.50
2010,04,03,19,04,1.40
2010,04,03,19,05,2.60
2010,04,03,19,06,0.80
2010,04,03,19,07,1.60
2010,04,03,19,08,3.90
2010,04,03,19,09,1.60
2010,04,03,19,10,0.90
2010,04,03,19,11,0.70
2010,04,03,19,12,0.70
2010,04,03,19,13,2.00
2010,04,03,19,14,0.70
2010,04,03,19,15,2.40
2010,04,03,19,16,1.70
2010,04,03,19,17,0.40
2010,04,03,19,18,1.50
2010,04,03,19,19,1.60
2010,04,03,19,20,1.10
2010,04,03,19,21,1.50
2010,04,03,19,22,1.70
2010,04,03,19,23,1.70
2010,04,03,19,24,1.20
2010,04,03,19,25,0.70
2010,04,03,19,26,1.60
2010,04,03,19,27,0.80
2010,04,03,19,28,1.30
2010,04,03,19,29,0.30
2010,04,03,19,30,1.20
2010,04,03,19,31,1.50
2010,04,03,19,32,0.30
2010,04,03,19,33,0.30
2010,04,03,19,34,0.80
2010,04,03,19,35,1.10
2010,04,03,19,36,2.10
2010,04,03,19,37,2.90
2010,04,03,19,38,0.40
2010,04,03,19,39,1.70
2010,04,03,19,40,0.30
2010,04,03,19,41,0.90
2010,04,03,19,42,1.20
2010,04,03,19,43,0.50
2010,04,03,19,44,0.90
2010,04,03,19,45,0.20
2010,04,03,19,46,0.90
2010,04,03,19,47,0.70
2010,04,03,19,48,1.70
2010,04,03,19,49,1.40
2010,04,03,19,50,0.90
2010,04,03,19,51,0.90
2010,04,03,19,52,1.90
2010,04,03,19,53,1.10
2010,04,03,19,54,4.00
2010,04,03,19,55,4.10
2010,04,03,19,56,3.10
2010,04,03,19,57,3.40
2010,04,03,19,58,3.60
2010,04,03,19,59,4.80
2010,04,03,20,00,4.60
2010,04,03,20,01,3.00
2010,04,03,20,02,3.00
2010,04,03,20,03,2.70
2010,04,03,20,04,4.80
2010,04,03,20,05,1.90
2010,04,03,20,06,3.50
2010,04,03,20,07,1.80
2010,04,03,20,08,0.70
2010,04,03,20,09,3.50
2010,04,03,20,10,4.50
2010,04,03,20,11,3.50
2010,04,03,20,12,4.60
2010,04,03,20,13,3.20
2010,04,03,20,14,3.80
2010,04,03,20,15,6.40
2010,04,03,20,16,6.00
2010,04,03,20,17,6.10
2010,04,03,20,18,10.10
2010,04,03,20,19,7.50
2010,04,03,20,20,5.50
2010,04,03,20,21,5.00
2010,04,03,20,22,4.90
2010,04,03,20,23,5.50
2010,04,03,20,24,7.30
2010,04,03,20,25,8.80
2010,04,03,20,26,6.60
2010,04,03,20,27,3.50
2010,04,03,20,28,7.20
2010,04,03,20,29,4.80
2010,04,03,20,30,4.30
2010,04,03,20,31,3.50
2010,04,03,20,32,4.50
2010,04,03,20,33,4.70
2010,04,03,20,34,3.60
2010,04,03,20,35,1.60
2010,04,03,20,36,1.50
2010,04,03,20,37,3.10
2010,04,03,20,38,5.60
2010,04,03,20,39,2.70
2010,04,03,20,40,3.70
2010,04,03,20,41,4.70
2010,04,03,20,42,4.30
2010,04,03,20,43,7.10
2010,04,03,20,44,4.40
2010,04,03,20,45,8.90
2010,04,03,20,46,6.30
2010,04,03,20,47,7.70
2010,04,03,20,48,5.80
2010,04,03,20,49,4.10
2010,04,03,20,50,7.10
2010,04,03,20,51,7.00
2010,04,03,20,52,4.70
2010,04,03,20,53,7.30
2010,04,03,20,54,3.90
2010,04,03,20,55,5.00
2010,04,03,20,56,4.40
2010,04,03,20,57,4.90
2010,04,03,20,58,6.40
2010,04,03,20,59,4.70
2010,04,03,21,00,6.00
2010,04,03,21,01,4.70
2010,04,03,21,02,3.90
2010,04,03,21,03,6.40
2010,04,03,21,04,6.20
2010,04,03,21,05,4.80
2010,04,03,21,06,5.20
2010,04,03,21,07,3.70
2010,04,03,21,08,1.40
2010,04,03,21,09,3.90
2010,04,03,21,10,1.90
2010,04,03,21,11,4.20
2010,04,03,21,12,0.80
2010,04,03,21,13,2.70
2010,04,03,21,14,2.20
2010,04,03,21,15,2.00
2010,04,03,21,16,3.90
2010,04,03,21,17,2.10
2010,04,03,21,18,4.10
2010,04,03,21,19,3.70
2010,04,03,21,20,0.90
2010,04,03,21,21,0.60
2010,04,03,21,22,2.70
2010,04,03,21,23,3.80
2010,04,03,21,24,6.00
2010,04,03,21,25,3.60
2010,04,03,21,26,4.70
2010,04,03,21,27,2.00
2010,04,03,21,28,3.60
2010,04,03,21,29,5.60
2010,04,03,21,30,3.10
2010,04,03,21,31,4.60
2010,04,03,21,32,3.00
2010,04,03,21,33,5.00
2010,04,03,21,34,3.30
2010,04,03,21,35,6.40
2010,04,03,21,36,3.20
2010,04,03,21,37,5.10
2010,04,03,21,38,3.90
2010,04,03,21,39,4.00
2010,04,03,21,40,5.10
2010,04,03,21,41,5.00
2010,04,03,21,42,4.30
2010,04,03,21,43,5.20
2010,04,03,21,44,1.80
2010,04,03,21,45,6.10
2010,04,03,21,46,5.80
2010,04,03,21,47,5.90
2010,04,03,21,48,5.30
2010,04,03,21,49,3.70
2010,04,03,21,50,5.80
2010,04,03,21,51,5.00
2010,04,03,21,52,5.50
2010,04,03,21,53,6.20
2010,04,03,21,54,5.40
2010,04,03,21,55,6.00
2010,04,03,21,56,6.20
2010,04,03,21,57,6.20
2010,04,03,21,58,7.70
2010,04,03,21,59,6.50
2010,04,03,22,00,4.70
2010,04,03,22,01,5.50
2010,04,03,22,02,4.50
2010,04,03,22,03,4.40
2010,04,03,22,04,5.30
2010,04,03,22,05,3.30
2010,04,03,22,06,4.40
2010,04,03,22,07,4.70
2010,04,03,22,08,5.00
2010,04,03,22,09,4.20
2010,04,03,22,10,4.60
2010,04,03,22,11,3.40
2010,04,03,22,12,4.30
2010,04,03,22,13,2.80
2010,04,03,22,14,3.40
2010,04,03,22,15,3.80
2010,04,03,22,16,3.60
2010,04,03,22,17,4.50
2010,04,03,22,18,3.00
2010,04,03,22,19,6.40
2010,04,03,22,20,4.20
2010,04,03,22,21,6.80
2010,04,03,22,22,6.00
2010,04,03,22,23,4.60
2010,04,03,22,24,6.90
2010,04,03,22,25,6.60
2010,04,03,22,26,3.70
2010,04,03,22,27,3.20
2010,04,03,22,28,5.40
2010,04,03,22,29,1.90
2010,04,03,22,30,3.70
2010,04,03,22,31,2.50
2010,04,03,22,32,1.70
2010,04,03,22,33,1.20
2010,04,03,22,34,0.30
2010,04,03,22,35,0.50
2010,04,03,22,36,0.20
2010,04,03,22,37,0.40
2010,04,03,22,38,2.50
2010,04,03,22,39,0.80
2010,04,03,22,40,0.10
2010,04,03,22,41,0.00
2010,04,03,22,42,0.00
2010,04,03,22,43,0.00
2010,04,03,22,44,0.00
2010,04,03,22,45,0.00
2010,04,03,22,46,0.80
2010,04,03,22,47,0.90
2010,04,03,22,48,0.90
2010,04,03,22,49,2.70
2010,04,03,22,50,0.10
2010,04,03,22,51,1.60
2010,04,03,22,52,2.60
2010,04,03,22,53,2.90
2010,04,03,22,54,3.50
2010,04,03,22,55,1.60
2010,04,03,22,56,5.10
2010,04,03,22,57,2.90
2010,04,03,22,58,0.90
2010,04,03,22,59,1.10
2010,04,03,23,00,0.40
2010,04,03,23,01,1.90
2010,04,03,23,02,2.40
2010,04,03,23,03,3.10
2010,04,03,23,04,1.90
2010,04,03,23,05,0.80
2010,04,03,23,06,2.20
2010,04,03,23,07,3.50
2010,04,03,23,08,0.90
2010,04,03,23,09,0.30
2010,04,03,23,10,2.00
2010,04,03,23,11,3.40
2010,04,03,23,12,4.70
2010,04,03,23,13,3.20
2010,04,03,23,14,2.50
2010,04,03,23,15,3.60
2010,04,03,23,16,4.60
2010,04,03,23,17,1.10
2010,04,03,23,18,2.30
2010,04,03,23,19,1.70
2010,04,03,23,20,3.60
2010,04,03,23,21,2.30
2010,04,03,23,22,1.30
2010,04,03,23,23,1.50
2010,04,03,23,24,4.10
2010,04,03,23,25,5.30
2010,04,03,23,26,2.40
2010,04,03,23,27,1.40
2010,04,03,23,28,3.10
2010,04,03,23,29,0.70
2010,04,03,23,30,0.60
2010,04,03,23,31,1.90
2010,04,03,23,32,1.30
2010,04,03,23,33,2.00
2010,04,03,23,34,4.10
2010,04,03,23,35,1.20
2010,04,03,23,36,0.90
2010,04,03,23,37,0.50
2010,04,03,23,38,0.10
2010,04,03,23,39,0.10
2010,04,03,23,40,3.30
2010,04,03,23,41,4.00
2010,04,03,23,42,1.60
2010,04,03,23,43,1.70
2010,04,03,23,44,2.70
2010,04,03,23,45,0.80
2010,04,03,23,46,0.10
2010,04,03,23,47,0.30
2010,04,03,23,48,1.10
2010,04,03,23,49,0.90
2010,04,03,23,50,0.30
2010,04,03,23,51,0.40
2010,04,03,23,52,0.70
2010,04,03,23,53,1.90
2010,04,03,23,54,2.10
2010,04,03,23,55,1.30
2010,04,03,23,56,0.90
2010,04,03,23,57,0.00
2010,04,03,23,58,0.30
2010,04,03,23,59,0.00
